Appleton, MN

1:16 AM CDT on July 25, 2017 (GMT -0500)
Appleton Municipal

Weather History for KAQP - May, 2014

Change the Weather History Date:

Thursday, May 29, 2014

  Actual Average Record
Temperature  
Mean Temperature 72 °F -  
Max Temperature 87 °F 69 °F 89 °F (1999)
Min Temperature 57 °F 48 °F 44 °F (2005)
Cooling Degree Days 7    
Growing Degree Days 22 (Base 50)    
Moisture  
Dew Point 48 °F    
Average Humidity 45    
Maximum Humidity 94    
Minimum Humidity 18    
Precipitation  
Precipitation 0.00 in - - ()
Sea Level Pressure  
Sea Level Pressure 30.04 in    
Wind  
Wind Speed 7 mph (SE)    
Max Wind Speed 15 mph    
Max Gust Speed 21 mph    
Visibility 10 miles    
Events      
Averages and records for this station are not official NWS values.
T = Trace of Precipitation, MM = Missing Value Source: NWS Daily Summary

Daily Weather History Graph

Daily Weather History Graph

Search for Another Location

Airport or City:

Trip Planner

Search our weather history database for the weather conditions in past years. The results will help you decide how hot, cold, wet, or windy it might be!

Date:

Astronomy

May. 29, 2014 Rise Set
Actual Time 5:41 AM CDT 9:01 PM CDT
Civil Twilight 5:05 AM CDT 9:38 PM CDT
Nautical Twilight 4:18 AM CDT 10:25 PM CDT
Astronomical Twilight 3:18 AM CDT 11:25 PM CDT
Moon 6:38 AM CDT (5/29) 9:50 PM CDT (5/29)
Length of Visible Light 16h 32m
Length of Day
15h 20m
New Moon, 1% of the Moon is Illuminated
May 29
New Moon
Jun 5
First Quarter
Jun 12
Full
Jun 19
Last Quarter
Jun 27
New

Hourly Weather History & Observations

Time (CDT) Temp. Dew Point Humidity Pressure Visibility Wind Dir Wind Speed Gust Speed Precip Events Conditions
12:16 AM 66.2 °F 55.4 °F 68% 30.05 in 10.0 mi ESE 8.1 mph - N/A   Clear
12:37 AM 66.2 °F 55.4 °F 68% 30.05 in 10.0 mi SE 4.6 mph - N/A   Clear
12:56 AM 66.2 °F 55.4 °F 68% 30.05 in 10.0 mi SE 6.9 mph - N/A   Clear
1:16 AM 66.2 °F 55.4 °F 68% 30.06 in 10.0 mi SE 6.9 mph - N/A   Clear
1:36 AM 66.2 °F 55.4 °F 68% 30.05 in 10.0 mi SE 6.9 mph - N/A   Clear
1:56 AM 64.4 °F 55.4 °F 73% 30.05 in 10.0 mi ESE 4.6 mph - N/A   Clear
2:16 AM 62.6 °F 55.4 °F 77% 30.06 in 10.0 mi ESE 3.5 mph - N/A   Clear
2:36 AM 64.4 °F 55.4 °F 73% 30.06 in 10.0 mi East 3.5 mph - N/A   Clear
2:56 AM 62.6 °F 55.4 °F 77% 30.07 in 10.0 mi Calm Calm - N/A   Clear
3:16 AM 60.8 °F 55.4 °F 82% 30.08 in 10.0 mi Calm Calm - N/A   Clear
3:35 AM 60.8 °F 53.6 °F 77% 30.08 in 10.0 mi Calm Calm - N/A   Clear
3:56 AM 60.8 °F 53.6 °F 77% 30.08 in 10.0 mi Calm Calm - N/A   Clear
4:16 AM 57.2 °F 53.6 °F 88% 30.07 in 10.0 mi East 3.5 mph - N/A   Clear
4:36 AM 59.0 °F 53.6 °F 82% 30.07 in 10.0 mi East 3.5 mph - N/A   Clear
4:56 AM 57.2 °F 53.6 °F 88% 30.07 in 10.0 mi ESE 5.8 mph - N/A   Clear
5:17 AM 57.2 °F 55.4 °F 94% 30.07 in 10.0 mi ESE 4.6 mph - N/A   Clear
5:36 AM 57.2 °F 53.6 °F 88% 30.07 in 10.0 mi ESE 3.5 mph - N/A   Clear
5:55 AM 59.0 °F 55.4 °F 88% 30.08 in 10.0 mi East 4.6 mph - N/A   Clear
6:16 AM 59.0 °F 55.4 °F 88% 30.08 in 10.0 mi ESE 5.8 mph - N/A   Clear
6:35 AM 60.8 °F 55.4 °F 82% 30.08 in 10.0 mi ESE 8.1 mph - N/A   Clear
6:55 AM 62.6 °F 55.4 °F 77% 30.07 in 10.0 mi ESE 8.1 mph - N/A   Clear
7:16 AM 64.4 °F 57.2 °F 77% 30.07 in 10.0 mi ESE 5.8 mph - N/A   Clear
7:36 AM 66.2 °F 55.4 °F 68% 30.08 in 10.0 mi ESE 8.1 mph - N/A   Clear
7:56 AM 68.0 °F 55.4 °F 64% 30.08 in 10.0 mi ESE 8.1 mph - N/A   Clear
8:16 AM 69.8 °F 55.4 °F 60% 30.09 in 10.0 mi SE 6.9 mph - N/A   Clear
8:34 AM 71.6 °F 55.4 °F 57% 30.09 in 10.0 mi SE 6.9 mph - N/A   Clear
8:54 AM 73.4 °F 55.4 °F 53% 30.09 in 10.0 mi SE 6.9 mph - N/A   Clear
9:14 AM 71.6 °F 53.6 °F 53% 30.08 in 10.0 mi SE 6.9 mph - N/A   Clear
9:34 AM 73.4 °F 51.8 °F 47% 30.08 in 10.0 mi SE 5.8 mph - N/A   Clear
9:54 AM 75.2 °F 51.8 °F 44% 30.08 in 10.0 mi SSE 5.8 mph - N/A   Clear
10:14 AM 75.2 °F 48.2 °F 38% 30.09 in 10.0 mi SSE 8.1 mph - N/A   Clear
10:34 AM 75.2 °F 44.6 °F 34% 30.08 in 10.0 mi SE 8.1 mph - N/A   Clear
10:54 AM 77.0 °F 44.6 °F 32% 30.08 in 10.0 mi SSE 8.1 mph - N/A   Clear
11:15 AM 80.6 °F 41.0 °F 24% 30.08 in 10.0 mi SSE 11.5 mph - N/A   Clear
11:34 AM 80.6 °F 41.0 °F 24% 30.08 in 10.0 mi SSE 12.7 mph 18.4 mph N/A   Clear
11:54 AM 80.6 °F 35.6 °F 20% 30.07 in 10.0 mi South 9.2 mph 16.1 mph N/A   Clear
12:14 PM 82.4 °F 37.4 °F 20% 30.07 in 10.0 mi SE 11.5 mph 17.3 mph N/A   Clear
12:35 PM 82.4 °F 39.2 °F 21% 30.07 in 10.0 mi South 9.2 mph 17.3 mph N/A   Clear
12:55 PM 82.4 °F 42.8 °F 25% 30.07 in 10.0 mi South 9.2 mph 17.3 mph N/A   Clear
1:14 PM 84.2 °F 37.4 °F 19% 30.06 in 10.0 mi SE 10.4 mph 16.1 mph N/A   Clear
1:35 PM 84.2 °F 39.2 °F 20% 30.06 in 10.0 mi SSE 12.7 mph 17.3 mph N/A   Clear
1:54 PM 84.2 °F 39.2 °F 20% 30.05 in 10.0 mi SSE 10.4 mph 16.1 mph N/A   Clear
2:15 PM 84.2 °F 39.2 °F 20% 30.04 in 10.0 mi South 12.7 mph 18.4 mph N/A   Clear
2:35 PM 86.0 °F 37.4 °F 18% 30.03 in 10.0 mi SSE 10.4 mph - N/A   Clear
2:55 PM 87.8 °F 39.2 °F 18% 30.02 in 10.0 mi SE 11.5 mph 17.3 mph N/A   Clear
3:14 PM 87.8 °F 42.8 °F 21% 30.02 in 10.0 mi South 8.1 mph 16.1 mph N/A   Clear
3:35 PM 87.8 °F 44.6 °F 22% 30.01 in 10.0 mi SE 10.4 mph 18.4 mph N/A   Clear
4:14 PM 87.8 °F 44.6 °F 22% 29.99 in 10.0 mi SE 12.7 mph 20.7 mph N/A   Clear
4:34 PM 87.8 °F 44.6 °F 22% 29.99 in 10.0 mi SSE 15.0 mph 20.7 mph N/A   Clear
5:15 PM 87.8 °F 46.4 °F 24% 29.99 in 10.0 mi SSE 12.7 mph 18.4 mph N/A   Clear
5:34 PM 87.8 °F 44.6 °F 22% 29.99 in 10.0 mi SSE 11.5 mph 17.3 mph N/A   Clear
5:54 PM 87.8 °F 44.6 °F 22% 29.99 in 10.0 mi SSE 8.1 mph - N/A   Clear
6:15 PM 87.8 °F 44.6 °F 22% 29.98 in 10.0 mi SE 6.9 mph - N/A   Clear
6:34 PM 87.8 °F 44.6 °F 22% 29.98 in 10.0 mi SE 10.4 mph 16.1 mph N/A   Clear
6:54 PM 87.8 °F 44.6 °F 22% 29.98 in 10.0 mi SE 11.5 mph - N/A   Clear
7:15 PM 86.0 °F 44.6 °F 23% 29.97 in 10.0 mi ESE 11.5 mph - N/A   Clear
7:34 PM 84.2 °F 46.4 °F 27% 29.97 in 10.0 mi SE 8.1 mph 16.1 mph N/A   Clear
7:55 PM 84.2 °F 44.6 °F 25% 29.97 in 10.0 mi ESE 10.4 mph 16.1 mph N/A   Clear
8:14 PM 82.4 °F 44.6 °F 26% 29.97 in 10.0 mi ESE 9.2 mph - N/A   Clear
8:35 PM 80.6 °F 44.6 °F 28% 29.98 in 10.0 mi ESE 8.1 mph - N/A   Clear
8:55 PM 80.6 °F 42.8 °F 26% 29.98 in 10.0 mi SE 9.2 mph - N/A   Clear
9:14 PM 78.8 °F 42.8 °F 28% 29.98 in 10.0 mi SE 9.2 mph - N/A   Clear
9:35 PM 78.8 °F 39.2 °F 24% 29.99 in 10.0 mi SE 9.2 mph - N/A   Clear
9:55 PM 77.0 °F 41.0 °F 28% 29.99 in 10.0 mi ESE 8.1 mph - N/A   Clear
10:15 PM 75.2 °F 41.0 °F 29% 30.01 in 10.0 mi ESE 8.1 mph - N/A   Clear
10:35 PM 73.4 °F 42.8 °F 33% 30.02 in 10.0 mi ESE 9.2 mph - N/A   Clear
10:54 PM 73.4 °F 42.8 °F 33% 30.02 in 10.0 mi ESE 11.5 mph - N/A   Clear
11:15 PM 73.4 °F 44.6 °F 36% 30.01 in 10.0 mi SE 8.1 mph - N/A   Clear
11:35 PM 73.4 °F 44.6 °F 36% 30.00 in 10.0 mi SE 9.2 mph - N/A   Clear
11:54 PM 73.4 °F 42.8 °F 33% 30.00 in 10.0 mi SE 11.5 mph - N/A   Clear